USA 130 (DSP 18)

Last updated on Nov. 17, 2019, 4:19 a.m. UTC

1 24737U 97008A   19319.92120872  .00000039  00000-0  00000+0 0  9992
2 24737  13.4587  21.6130 0000206 320.9906  51.9541  1.00262903  7491
UTC
Height (km)
Latitude
Longitude
Inclination
Orbital Period
UTC large
Height (km)
Speed (km/s)
/
Latitude / Longitude
Inclination (degrees)
Orbital Period (minutes)
Azimuth
Elevation
Range (km)
Doppler Factor
iOS Compass Heading
iOS Angle

Next 30 passes for location: Hong Kong

Rise time Rise Azimuth (degrees) Set time Set Azimuth (degrees) Duration Max altitude (degrees)

No matching passes for this satellites